Temp
65 67 62 64 52 48 45 54 60 61 60 63 67 66 61 60 60 53 67 71 72 71 72 72 73 73 73 73 72 72 72 72 71 71 71 71 70 70 70 70 70 70 71 71 71 71 70 70 69
62 69 64 56 47 41 46 54 58 59 65 67 67 64 61 57 65 64 66 72 72 72 71 72 71 72 72 72 72 71 71 71 71 71 70 70 70 69 69 69 69 69 70 70 70 70 70 69 69
66 67 56 51 44 43 47 55 58 62 67 65 62 65 62 60 65 65 69 72 71 68 70 71 71 72 72 71 71 71 70 70 70 70 70 69 69 68 68 68 68 68 69 69 69 69 68 68 68
64 60 56 48 45 52 54 57 61 62 64 67 64 60 62 66 68 70 71 71 68 67 69 70 71 72 71 71 71 70 70 70 69 69 68 68 68 67 67 67 67 67 67 67 68 68 67 67 67
60 54 46 42 48 55 57 63 62 59 61 62 63 60 59 66 70 71 69 70 66 65 67 70 70 71 71 71 70 70 69 69 68 67 67 67 67 66 66 66 66 66 66 66 66 66 66 66 66
53 52 42 40 47 56 58 63 63 59 60 62 60 59 58 67 67 69 69 68 68 66 69 69 67 68 69 70 69 69 68 67 66 66 66 66 66 65 65 65 65 65 65 65 66 65 65 65 65
50 47 42 42 47 53 57 60 61 57 59 60 68 56 57 63 67 68 68 67 66 67 67 67 66 65 65 66 66 67 66 65 65 65 64 64 64 64 64 64 64 65 65 65 65 65 65 65 65
53 50 43 43 47 50 57 59 60 61 57 64 66 57 53 62 66 67 66 65 64 64 65 63 61 61 60 60 63 63 64 63 63 63 63 62 62 63 62 61 62 64 65 65 66 66 66 66 65
56 44 42 46 50 51 59 57 64 61 59 63 63 60 61 65 64 62 61 60 61 63 63 62 61 60 58 58 59 60 62 62 62 61 61 58 55 56 57 60 62 63 64 65 65 65 65 64 61
48 41 48 53 50 50 56 57 56 57 57 57 56 58 60 61 60 59 58 58 59 59 60 63 60 60 59 64 56 55 58 56 56 56 55 56 55 55 58 56 60 61 62 63 64 64 64 59 55
50 44 51 54 54 55 55 57 58 53 54 58 58 56 57 57 58 58 58 58 59 60 61 61 61 60 58 57 54 53 54 53 53 54 54 53 54 52 52 52 52 53 56 54 56 59 57 56 55
47 55 54 58 56 56 53 55 55 53 59 62 59 60 58 57 57 57 57 58 59 59 60 61 60 60 58 55 54 54 54 53 52 53 54 51 50 50 51 51 51 52 53 53 52 53 57 55 56
50 52 58 57 58 55 57 53 53 55 59 62 63 61 58 58 58 59 60 60 60 59 60 60 59 59 58 56 54 54 53 52 52 52 54 52 51 50 51 51 52 52 54 52 52 52 53 53 54
52 52 53 55 56 56 55 51 55 55 59 58 60 58 58 59 60 59 60 60 61 61 60 59 59 58 58 55 55 53 53 53 52 51 52 54 52 51 51 51 52 52 56 53 52 52 52 52 54
53 47 49 52 54 54 55 49 52 59 59 59 58 59 59 59 60 61 62 62 63 62 61 59 58 58 57 56 55 53 54 54 52 52 53 54 54 52 51 51 51 51 56 54 54 54 53 52 56
46 44 39 50 51 53 53 44 56 57 53 56 56 56 58 60 61 60 62 64 64 61 61 60 62 57 56 55 53 54 53 51 51 51 52 54 55 54 52 52 51 55 57 56 57 53 52 53 53
41 35 38 46 51 50 48 45 54 55 55 54 56 58 59 59 58 59 61 63 63 63 61 59 58 56 55 54 53 52 52 51 51 51 51 54 55 55 52 52 51 56 57 54 58 57 52 51 50
36 37 42 41 47 46 42 45 51 56 51 54 56 59 60 58 60 60 60 62 62 62 61 60 58 57 55 53 50 50 50 50 51 50 51 54 54 55 53 52 52 54 57 57 57 55 53 51 50
42 39 37 44 48 45 43 43 49 51 53 52 55 56 58 58 62 62 61 62 61 61 60 58 56 54 53 51 47 47 48 49 49 49 53 53 54 54 52 51 51 51 55 56 57 57 53 51 51
43 39 38 45 46 44 43 43 49 51 52 57 56 56 57 57 58 59 60 61 62 60 60 57 57 54 54 53 49 50 48 49 49 50 51 53 53 53 54 52 51 51 55 56 56 56 52 51 51
42 40 39 41 44 44 40 38 43 50 51 57 53 58 57 60 58 57 58 60 61 59 58 57 56 54 53 53 51 49 48 47 47 47 48 51 53 53 52 52 52 51 55 55 56 55 54 50 51
40 46 46 44 39 32 40 28 39 49 51 51 53 54 56 56 57 60 58 56 59 58 58 58 55 54 53 52 50 51 47 45 46 46 48 49 52 52 53 53 52 51 54 56 56 57 53 52 49
43 48 46 43 38 35 34 31 38 42 47 52 54 52 53 54 55 58 57 59 54 56 57 56 54 53 52 51 50 49 47 47 47 47 48 48 50 52 53 53 51 51 52 56 54 58 55 52 51
48 44 43 40 35 20 33 36 34 44 51 52 53 55 54 53 52 53 53 54 53 53 54 53 53 52 52 51 50 49 48 47 46 46 46 47 48 49 51 53 51 51 51 53 56 57 56 52 52
43 37 20 20 20 23 35 33 37 47 54 54 55 55 53 51 51 50 51 52 51 51 51 52 52 50 51 50 50 49 49 48 48 47 46 46 47 47 49 51 50 50 52 57 57 57 55 52 51
38 38 26 21 21 26 33 30 39 50 54 54 56 56 51 48 48 47 50 51 51 50 50 52 51 50 50 49 48 49 49 49 49 48 47 47 48 48 50 51 51 52 56 58 57 56 56 51 51
35 32 40 27 19 23 30 36 45 49 52 51 50 50 48 48 47 47 47 47 49 49 49 50 49 50 50 49 48 48 48 48 48 49 49 48 48 50 49 50 51 52 53 55 56 55 55 55 51
40 45 32 26 17 19 27 30 39 43 48 49 47 49 48 48 46 46 48 48 49 49 48 49 51 50 49 49 49 48 48 49 49 48 48 48 48 49 49 50 51 52 55 53 55 54 55 53 53
35 35 36 36 30 24 19 31 43 51 52 51 51 49 48 48 48 48 48 48 49 49 50 49 50 49 49 49 47 47 47 48 48 48 48 48 48 49 49 50 51 51 52 52 54 54 54 54 54
46 39 41 33 23 27 28 35 49 50 51 51 50 49 46 47 47 47 47 48 48 48 49 49 50 50 50 49 48 48 48 47 47 48 48 48 48 49 49 50 50 51 55 52 54 51 54 53 53
MSLP
1012.78 1012.30 1012.55 1012.79 1013.96 1013.92 1012.78 1010.88 1009.23 1008.75 1008.80 1008.79 1008.69 1009.24 1010.48 1011.29 1012.02 1013.26 1013.26 1013.43 1013.96 1014.57 1014.92 1015.16 1015.41 1015.68 1016.05 1016.53 1016.72 1016.89 1017.00 1017.08 1017.15 1017.17 1017.15 1017.14 1017.12 1017.06 1017.01 1016.99 1016.91 1016.74 1016.59 1016.48 1016.41 1016.36 1016.34 1016.26 1016.20
1013.00 1012.57 1012.70 1013.47 1014.14 1013.98 1012.31 1010.25 1009.58 1008.90 1008.85 1008.77 1008.99 1009.50 1010.62 1011.98 1012.27 1013.06 1013.17 1013.79 1013.87 1014.41 1014.91 1015.14 1015.51 1015.81 1016.36 1016.67 1016.86 1017.01 1017.12 1017.20 1017.29 1017.33 1017.34 1017.31 1017.31 1017.30 1017.26 1017.23 1017.16 1016.97 1016.75 1016.58 1016.49 1016.40 1016.36 1016.36 1016.25
1013.12 1013.16 1013.99 1013.98 1013.92 1013.32 1011.54 1010.07 1009.59 1009.11 1008.75 1008.86 1009.41 1009.74 1010.97 1012.24 1012.66 1013.00 1013.15 1013.70 1014.05 1014.67 1014.88 1015.33 1015.64 1016.04 1016.48 1016.76 1016.97 1017.12 1017.24 1017.32 1017.40 1017.49 1017.54 1017.55 1017.53 1017.53 1017.52 1017.42 1017.27 1017.15 1016.99 1016.86 1016.66 1016.53 1016.48 1016.43 1016.37
1013.30 1013.57 1014.07 1013.90 1013.54 1011.95 1010.61 1009.90 1009.24 1009.08 1008.96 1008.99 1009.58 1010.81 1011.58 1012.23 1012.35 1012.65 1013.48 1013.79 1014.26 1014.84 1015.00 1015.46 1015.79 1016.31 1016.56 1016.83 1017.07 1017.26 1017.43 1017.49 1017.58 1017.67 1017.71 1017.71 1017.75 1017.72 1017.67 1017.57 1017.41 1017.33 1017.20 1017.03 1016.90 1016.77 1016.62 1016.48 1016.34
1013.55 1014.30 1014.53 1014.18 1012.84 1011.25 1009.97 1008.97 1008.78 1009.00 1009.13 1009.33 1009.55 1011.07 1012.09 1012.55 1012.37 1012.74 1013.53 1013.91 1014.30 1014.97 1015.29 1015.69 1016.02 1016.46 1016.70 1016.93 1017.14 1017.34 1017.50 1017.68 1017.81 1017.89 1017.90 1017.89 1017.90 1017.87 1017.79 1017.72 1017.64 1017.52 1017.35 1017.16 1016.99 1016.88 1016.74 1016.61 1016.45
1014.08 1014.46 1014.90 1014.24 1012.64 1010.75 1009.42 1008.65 1008.60 1008.84 1009.28 1009.46 1009.88 1011.21 1012.59 1012.72 1012.78 1012.98 1013.54 1014.01 1014.29 1014.94 1015.44 1015.93 1016.32 1016.62 1016.83 1017.05 1017.28 1017.49 1017.70 1017.88 1018.02 1018.05 1018.01 1017.98 1017.97 1017.97 1017.95 1017.84 1017.69 1017.54 1017.38 1017.24 1017.06 1016.86 1016.68 1016.51 1016.32
1014.24 1014.79 1014.51 1013.46 1012.43 1010.75 1009.43 1008.71 1008.82 1008.99 1009.21 1009.50 1009.60 1011.49 1013.01 1013.17 1013.11 1013.07 1013.65 1014.21 1014.65 1014.99 1015.56 1016.16 1016.52 1016.77 1016.98 1017.26 1017.57 1017.77 1017.94 1018.06 1018.14 1018.17 1018.15 1018.21 1018.21 1018.19 1018.17 1018.09 1017.80 1017.55 1017.44 1017.26 1016.99 1016.80 1016.55 1016.34 1016.12
1013.99 1014.58 1014.10 1013.08 1011.99 1010.86 1009.84 1009.21 1009.03 1009.31 1009.57 1009.38 1009.61 1011.44 1012.95 1013.15 1013.20 1013.38 1014.07 1014.61 1014.98 1015.32 1015.58 1016.26 1016.84 1017.07 1017.30 1017.50 1017.70 1017.91 1018.08 1018.15 1018.20 1018.27 1018.25 1018.28 1018.30 1018.24 1018.23 1018.18 1017.98 1017.67 1017.51 1017.26 1016.88 1016.67 1016.48 1016.29 1016.07
1013.64 1014.52 1014.19 1012.86 1011.91 1011.10 1010.23 1009.94 1009.66 1009.61 1009.78 1010.03 1010.82 1011.57 1012.08 1012.72 1013.32 1013.86 1014.42 1015.08 1015.30 1015.51 1015.76 1016.17 1016.68 1017.10 1017.40 1017.61 1017.83 1018.01 1018.13 1018.23 1018.31 1018.36 1018.36 1018.37 1018.39 1018.25 1018.19 1018.16 1018.09 1017.87 1017.70 1017.37 1017.12 1016.89 1016.63 1016.40 1016.26
1014.10 1014.47 1013.40 1012.51 1011.97 1011.73 1011.13 1010.63 1010.58 1010.45 1010.53 1010.89 1011.84 1012.61 1012.89 1013.29 1013.73 1014.09 1014.47 1015.05 1015.38 1015.58 1015.80 1016.09 1016.39 1016.86 1017.22 1017.31 1017.85 1018.13 1018.23 1018.41 1018.51 1018.51 1018.53 1018.46 1018.53 1018.40 1018.29 1018.17 1018.07 1017.97 1017.80 1017.54 1017.18 1016.91 1016.58 1016.50 1016.36
1013.77 1013.82 1013.10 1012.59 1012.19 1011.95 1011.71 1011.37 1011.23 1011.01 1011.13 1011.20 1011.73 1012.73 1013.25 1013.66 1014.11 1014.40 1014.63 1014.90 1015.06 1015.28 1015.58 1015.94 1016.25 1016.63 1016.99 1017.34 1017.77 1018.13 1018.33 1018.50 1018.61 1018.60 1018.72 1018.68 1018.74 1018.70 1018.57 1018.40 1018.31 1018.20 1017.88 1017.68 1017.39 1016.97 1016.65 1016.47 1016.17
1013.57 1013.20 1013.04 1012.77 1012.35 1012.20 1012.23 1012.20 1011.93 1011.66 1011.19 1010.82 1011.21 1011.93 1013.08 1013.62 1014.00 1014.24 1014.56 1014.83 1015.02 1015.23 1015.50 1015.72 1016.00 1016.39 1016.82 1017.26 1017.62 1017.94 1018.25 1018.56 1018.74 1018.74 1018.76 1018.93 1019.08 1019.01 1018.75 1018.61 1018.60 1018.34 1018.00 1017.86 1017.48 1017.19 1016.71 1016.44 1016.17
1013.50 1013.24 1012.96 1012.71 1012.63 1012.32 1012.25 1012.39 1012.54 1011.68 1011.11 1010.75 1011.40 1011.92 1012.40 1012.97 1013.42 1013.83 1014.13 1014.49 1014.75 1015.10 1015.25 1015.54 1016.01 1016.44 1016.82 1017.17 1017.63 1017.95 1018.32 1018.57 1018.68 1018.83 1018.78 1018.86 1019.07 1019.14 1018.94 1018.90 1018.66 1018.38 1017.86 1017.84 1017.53 1017.24 1016.87 1016.69 1016.46
1013.36 1013.39 1013.34 1012.93 1012.65 1012.47 1012.47 1012.44 1012.49 1011.01 1010.64 1010.94 1011.20 1011.61 1011.86 1012.10 1012.37 1013.01 1013.45 1013.79 1014.21 1014.58 1015.00 1015.32 1015.84 1016.14 1016.58 1017.14 1017.59 1018.01 1018.29 1018.52 1018.68 1018.86 1018.85 1018.85 1019.08 1019.10 1019.04 1019.05 1018.82 1018.48 1018.06 1017.75 1017.56 1017.35 1017.26 1017.24 1016.86
1013.44 1013.79 1013.65 1013.05 1012.46 1012.58 1012.44 1012.48 1011.75 1010.41 1010.88 1010.77 1010.88 1011.18 1011.32 1011.57 1011.70 1011.92 1012.21 1012.79 1013.23 1013.83 1014.52 1015.17 1015.72 1016.13 1016.59 1017.15 1017.51 1018.00 1018.20 1018.42 1018.65 1018.79 1018.79 1018.89 1019.03 1019.06 1019.03 1019.13 1019.02 1018.63 1018.16 1017.83 1017.55 1017.55 1017.33 1017.29 1016.73
1014.01 1014.27 1013.91 1012.37 1012.25 1012.64 1012.61 1012.07 1010.78 1010.31 1010.63 1010.65 1010.56 1010.77 1010.97 1010.99 1010.99 1011.20 1011.42 1011.85 1012.50 1013.26 1014.04 1014.80 1015.45 1016.11 1016.66 1017.13 1017.60 1018.00 1018.25 1018.50 1018.66 1018.80 1018.84 1018.91 1019.01 1019.03 1019.06 1019.13 1019.03 1018.63 1018.24 1018.12 1017.70 1017.83 1017.62 1017.36 1016.94
1014.50 1014.47 1013.83 1012.82 1012.29 1012.52 1012.87 1012.23 1011.04 1010.47 1010.44 1010.38 1010.20 1010.17 1010.36 1010.29 1010.39 1010.45 1010.72 1011.10 1011.70 1012.38 1013.47 1014.50 1015.18 1015.88 1016.43 1016.97 1017.47 1017.94 1018.25 1018.47 1018.60 1018.74 1018.83 1018.92 1019.03 1018.90 1019.01 1019.17 1019.09 1018.68 1018.47 1018.49 1017.97 1017.76 1017.69 1017.60 1017.55
1014.51 1014.47 1013.72 1013.01 1012.62 1012.71 1012.99 1012.30 1011.48 1010.63 1010.86 1010.51 1010.14 1009.67 1009.63 1009.75 1009.60 1009.63 1010.13 1010.58 1011.34 1012.18 1013.05 1014.05 1015.03 1015.76 1016.41 1017.04 1017.59 1018.10 1018.37 1018.56 1018.65 1018.80 1018.75 1018.87 1019.05 1018.95 1019.02 1019.24 1019.19 1018.89 1018.75 1018.67 1018.15 1018.02 1017.79 1017.74 1017.64
1013.99 1014.11 1013.93 1012.92 1012.56 1012.71 1012.87 1012.43 1011.76 1011.00 1010.47 1009.98 1009.61 1009.54 1009.09 1008.99 1008.75 1009.14 1009.74 1010.25 1010.94 1011.81 1012.74 1013.60 1014.53 1015.43 1016.19 1017.00 1017.75 1018.33 1018.55 1018.69 1018.90 1018.95 1018.75 1018.94 1019.09 1019.14 1019.12 1019.31 1019.39 1019.32 1019.03 1018.98 1018.73 1018.25 1017.84 1017.78 1017.62
1014.18 1014.12 1013.80 1013.23 1012.92 1013.05 1012.73 1012.31 1011.11 1010.35 1009.63 1008.72 1008.73 1008.73 1008.52 1008.56 1008.56 1008.96 1009.43 1010.13 1010.67 1011.54 1012.28 1013.25 1014.08 1015.15 1015.87 1016.51 1017.20 1017.61 1018.04 1018.52 1018.70 1018.85 1018.82 1018.97 1019.17 1019.34 1019.28 1019.46 1019.64 1019.49 1019.33 1019.28 1019.17 1018.59 1018.21 1018.04 1017.94
1013.56 1013.69 1013.73 1013.62 1013.33 1013.05 1012.97 1011.94 1010.54 1008.96 1008.29 1007.91 1007.74 1007.49 1007.65 1007.65 1008.06 1008.49 1009.12 1009.64 1010.39 1011.26 1012.15 1013.02 1013.83 1014.71 1015.56 1016.30 1017.11 1017.61 1018.09 1018.55 1018.93 1019.01 1018.98 1019.01 1019.13 1019.40 1019.40 1019.49 1019.70 1019.82 1019.45 1019.46 1019.39 1018.95 1018.66 1018.47 1018.18
1013.09 1012.85 1013.35 1013.78 1014.15 1014.34 1013.56 1012.64 1010.72 1008.69 1007.85 1007.23 1006.60 1006.83 1006.75 1007.21 1007.51 1007.97 1008.48 1009.32 1009.94 1010.81 1011.78 1012.69 1013.77 1014.62 1015.35 1015.91 1016.59 1017.17 1017.64 1018.46 1018.67 1018.79 1018.88 1019.07 1019.10 1019.38 1019.40 1019.47 1019.71 1019.81 1019.63 1019.58 1019.48 1019.15 1018.92 1018.88 1018.69
1012.44 1012.40 1013.22 1013.96 1014.63 1014.84 1014.24 1014.08 1010.25 1008.62 1007.60 1006.42 1005.70 1005.76 1005.94 1006.46 1006.78 1007.57 1008.10 1008.64 1009.64 1010.48 1011.47 1012.42 1013.44 1014.45 1015.21 1015.77 1016.15 1016.82 1017.47 1017.86 1018.24 1018.71 1018.93 1019.09 1019.25 1019.38 1019.52 1019.51 1019.72 1019.89 1019.80 1019.78 1019.79 1019.48 1019.02 1019.29 1019.06
1012.36 1013.24 1014.09 1014.92 1015.68 1015.63 1014.09 1013.23 1009.93 1008.10 1006.13 1005.37 1004.96 1005.27 1005.67 1006.22 1006.80 1007.47 1008.22 1008.88 1009.74 1010.50 1011.34 1012.32 1013.28 1014.18 1015.08 1015.74 1016.20 1016.55 1017.05 1017.59 1018.27 1018.73 1019.07 1019.24 1019.35 1019.47 1019.48 1019.49 1019.61 1019.70 1019.95 1019.88 1019.68 1019.61 1019.43 1019.48 1019.48
1012.46 1013.58 1015.85 1016.65 1016.95 1014.87 1013.29 1012.97 1008.45 1006.70 1005.31 1004.65 1004.53 1004.89 1005.26 1005.98 1006.63 1007.33 1008.29 1009.19 1009.84 1010.52 1011.26 1012.11 1012.97 1014.00 1014.74 1015.48 1016.07 1016.45 1016.69 1017.15 1017.75 1018.36 1018.79 1019.16 1019.34 1019.50 1019.62 1019.62 1019.80 1019.80 1019.78 1019.62 1019.62 1019.79 1019.88 1019.65 1019.85
1012.30 1012.97 1014.14 1015.57 1016.13 1014.80 1013.50 1011.04 1007.28 1005.18 1004.09 1004.22 1004.21 1004.45 1005.42 1006.31 1006.99 1007.63 1008.16 1008.72 1009.57 1010.47 1011.28 1011.98 1012.81 1013.69 1014.42 1015.18 1015.76 1016.16 1016.50 1016.87 1017.31 1017.84 1018.35 1018.74 1018.98 1019.15 1019.38 1019.57 1019.71 1019.68 1019.47 1019.66 1019.77 1019.90 1020.14 1020.10 1019.97
1012.17 1012.46 1012.89 1014.22 1015.90 1014.84 1012.29 1009.24 1006.82 1005.10 1004.42 1004.13 1004.60 1005.28 1006.28 1006.82 1007.49 1008.02 1008.59 1009.05 1009.59 1010.30 1011.00 1011.72 1012.65 1013.53 1014.20 1014.82 1015.39 1015.92 1016.21 1016.62 1016.99 1017.45 1017.97 1018.41 1018.77 1019.03 1019.30 1019.46 1019.66 1019.67 1019.62 1019.74 1019.92 1020.10 1020.29 1020.41 1020.33
1009.76 1011.10 1012.70 1013.77 1014.63 1013.98 1010.99 1008.96 1006.28 1004.89 1004.27 1004.07 1004.79 1005.40 1005.97 1006.47 1007.36 1007.94 1008.48 1008.97 1009.57 1010.13 1010.81 1011.52 1012.25 1013.09 1013.90 1014.57 1015.00 1015.56 1016.01 1016.41 1016.83 1017.27 1017.85 1018.21 1018.58 1018.89 1019.28 1019.65 1019.69 1019.71 1019.53 1019.75 1019.95 1020.42 1020.40 1020.65 1020.80
1009.85 1010.16 1010.85 1011.79 1012.56 1011.97 1010.69 1006.98 1004.39 1003.74 1003.31 1003.69 1003.90 1004.54 1005.60 1006.23 1006.88 1007.55 1008.20 1008.86 1009.37 1009.90 1010.54 1011.16 1011.89 1012.63 1013.52 1014.32 1014.91 1015.30 1015.81 1016.29 1016.82 1017.19 1017.70 1018.16 1018.51 1018.85 1019.22 1019.49 1019.71 1019.97 1019.96 1019.97 1020.12 1020.35 1020.52 1020.80 1020.95
1008.23 1008.35 1009.09 1009.98 1010.65 1010.36 1009.27 1005.35 1003.27 1003.02 1002.79 1003.05 1003.61 1004.52 1005.36 1006.33 1007.11 1007.69 1008.31 1008.91 1009.74 1010.18 1010.46 1011.00 1011.69 1012.28 1013.02 1013.78 1014.57 1015.18 1015.65 1016.16 1016.74 1017.16 1017.59 1017.94 1018.41 1018.81 1019.16 1019.41 1019.65 1019.86 1020.04 1020.13 1020.37 1020.47 1020.60 1020.83 1021.16
Wind_Speed
8 9 0 5 4 5 4 6 5 4 4 2 3 8 8 3 3 3 3 14 16 12 9 12 16 16 17 12 11 11 10 10 10 10 10 10 10 10 10 10 10 9 9 9 9 8 9 8 8
5 7 5 2 4 2 6 6 7 4 5 6 5 3 4 2 4 6 4 14 14 12 9 11 14 17 14 12 12 11 10 10 9 10 10 10 10 10 10 10 10 10 9 9 9 8 8 8 8
4 3 4 4 3 5 4 2 7 4 5 3 3 4 5 3 5 6 6 15 14 9 10 11 15 16 14 12 12 11 10 9 10 10 10 10 10 11 11 10 10 10 10 10 10 9 9 10 10
3 6 5 4 6 8 2 5 6 5 5 5 5 7 5 1 4 9 14 15 13 9 9 11 16 13 13 12 12 10 10 10 10 10 10 10 11 11 11 10 11 11 11 11 11 11 11 10 10
4 3 1 1 7 7 3 6 4 2 5 4 3 5 4 3 9 10 14 13 13 8 8 8 15 12 13 12 11 10 10 10 10 10 10 11 11 11 11 11 12 12 12 12 12 12 12 11 11
4 3 3 4 7 8 3 6 5 2 3 4 3 6 3 5 8 8 12 12 11 11 8 7 11 11 11 12 11 10 10 10 9 9 9 10 11 11 11 11 12 11 11 12 12 12 12 12 12
4 4 5 4 5 6 1 1 6 2 4 3 6 5 3 4 7 7 11 12 11 10 9 6 7 8 11 11 10 9 9 9 8 8 7 7 7 8 10 10 10 11 12 12 12 12 13 12 12
3 4 3 4 4 3 3 3 2 5 0 0 2 6 6 6 7 8 12 12 10 8 8 8 7 6 6 6 10 9 9 7 6 5 6 6 4 8 4 5 7 10 12 11 16 16 15 15 13
4 4 3 4 4 2 4 4 7 2 3 3 6 4 2 12 8 7 7 7 7 6 7 10 9 7 7 6 6 8 8 6 4 3 6 6 2 4 3 3 6 8 9 14 15 14 14 14 12
4 4 6 1 2 2 4 5 3 3 5 1 5 5 7 6 6 9 7 7 8 8 7 10 8 9 7 6 6 5 4 2 3 5 5 3 3 4 4 5 6 8 6 12 12 12 9 7 3
4 5 1 3 2 3 3 7 6 1 3 5 5 7 9 6 6 7 6 6 6 7 6 8 7 8 7 5 4 3 2 3 3 5 4 4 3 4 3 3 3 4 6 4 6 6 3 5 3
2 6 2 6 3 3 3 4 8 3 8 2 2 14 9 10 10 10 8 7 7 6 7 7 8 7 7 4 4 4 3 3 3 4 5 3 3 4 3 3 4 4 3 5 5 3 5 6 6
4 4 5 5 6 3 2 5 5 11 13 10 2 12 14 12 12 10 10 8 8 8 8 8 8 7 6 6 4 4 4 4 4 4 3 3 3 3 3 4 4 4 3 4 4 4 5 5 5
1 2 5 6 5 4 5 3 3 8 10 11 5 11 12 14 16 11 13 13 13 10 11 8 8 8 7 5 6 4 4 4 4 4 3 4 3 2 4 4 4 4 4 3 3 4 4 4 5
2 5 6 8 9 7 5 5 10 16 8 11 9 8 10 12 10 15 16 14 15 12 12 10 9 8 7 7 6 5 4 4 4 4 4 4 3 3 3 3 4 4 4 5 4 5 4 4 4
1 2 3 5 8 4 6 9 11 8 7 10 10 9 9 12 11 10 12 13 14 13 14 11 9 8 8 7 5 4 4 4 4 4 3 4 3 4 3 3 3 4 4 2 4 3 4 3 4
3 4 5 7 4 6 5 6 6 4 5 5 5 7 9 9 9 9 10 13 15 16 15 12 11 9 9 7 6 5 6 4 4 4 3 3 2 3 2 3 3 4 3 4 4 3 2 4 5
6 4 5 6 4 4 5 12 11 13 4 12 9 8 7 10 13 10 10 11 13 13 14 13 10 10 8 6 5 4 4 3 3 3 3 3 1 3 4 4 4 4 3 4 4 4 2 2 3
3 1 2 4 3 4 7 10 11 10 10 10 10 9 9 9 9 9 10 13 14 14 16 15 14 11 10 6 5 3 4 2 2 2 4 4 2 3 4 4 3 4 3 4 5 4 3 4 4
7 4 5 6 3 3 5 10 13 12 11 15 14 11 11 6 8 9 12 13 16 15 17 15 15 13 9 7 3 4 4 2 3 2 3 3 3 2 3 4 3 4 3 5 5 5 4 3 4
8 8 4 7 4 4 5 8 7 7 10 15 9 13 9 14 11 11 13 15 14 16 16 15 14 14 10 9 4 4 4 4 2 1 2 2 3 2 3 3 4 4 3 3 4 5 6 4 4
8 8 8 5 2 5 2 8 8 9 8 6 14 13 13 10 8 14 15 14 17 14 15 15 14 13 10 10 8 11 5 4 4 4 3 3 3 2 2 3 4 3 2 4 3 4 3 3 4
5 2 8 4 3 2 2 3 9 4 6 11 13 12 12 11 12 15 16 18 10 13 15 14 14 13 11 10 9 7 6 3 4 3 6 4 3 3 1 3 4 4 2 4 4 4 5 3 2
7 7 7 5 3 3 10 9 5 6 11 6 5 9 10 10 8 9 7 10 10 10 13 14 15 13 12 10 8 8 9 7 6 4 4 4 2 2 2 3 4 3 3 3 2 3 4 5 4
5 8 3 4 2 9 3 4 7 7 9 7 8 8 7 8 10 13 14 11 11 13 14 14 15 13 12 10 9 8 9 8 9 7 5 5 3 2 3 2 3 2 1 4 3 3 4 4 3
7 9 8 9 6 4 3 10 9 15 11 6 9 8 7 7 8 8 10 12 12 13 13 14 14 13 12 9 9 7 8 6 5 6 5 4 4 4 4 4 4 2 2 4 4 2 3 4 4
7 10 7 6 2 3 6 8 9 10 11 6 5 5 7 8 9 9 8 8 11 13 14 14 13 12 12 10 8 8 7 8 7 8 6 5 5 4 5 5 4 3 3 4 5 2 3 4 4
11 11 5 2 4 5 6 6 9 3 11 6 7 10 9 8 8 9 10 10 10 12 11 12 13 14 13 11 9 8 7 7 7 6 7 7 6 6 6 4 4 3 5 4 5 3 2 4 3
7 9 4 6 6 7 2 8 9 17 11 10 11 9 10 11 12 12 10 9 11 11 13 12 13 13 12 11 8 9 7 7 7 6 6 6 6 6 6 5 5 4 5 4 4 4 4 5 5
15 10 15 9 7 4 4 10 4 10 9 7 4 7 6 7 8 8 9 10 9 11 12 13 13 14 13 11 10 9 8 7 7 6 7 7 6 6 6 5 5 5 4 4 4 5 5 5 4
Wind_Direction
325 312 272 32 54 67 262 263 193 94 51 75 66 91 130 77 75 171 225 112 123 134 139 133 127 111 107 114 107 100 94 88 83 78 74 68 60 54 51 45 37 34 28 25 20 18 14 9 0
327 320 37 79 92 58 272 229 72 98 139 101 74 51 76 99 85 131 95 131 124 127 127 118 114 109 115 116 110 106 99 91 83 78 71 65 57 50 43 37 31 25 24 19 13 8 2 358 350
299 165 78 117 153 193 234 68 144 127 109 105 94 64 94 82 113 143 112 124 112 112 115 116 110 112 122 120 117 109 101 93 84 74 66 59 53 46 38 32 27 22 18 12 7 2 357 352 347
342 4 9 97 242 268 241 135 145 120 46 46 115 80 62 210 145 154 116 113 109 115 110 116 111 127 127 123 119 110 100 91 81 71 62 53 45 41 36 32 27 24 19 13 8 4 358 351 344
34 63 47 235 267 250 236 138 114 94 163 170 101 160 88 41 107 124 124 120 115 109 107 115 120 132 130 127 121 112 102 91 79 68 55 46 41 40 38 36 27 25 19 14 9 3 355 348 343
10 92 62 230 257 298 244 137 115 123 138 160 94 104 138 143 120 151 131 125 125 119 114 123 120 128 128 126 121 113 103 91 77 63 52 51 48 46 44 38 29 23 14 8 4 358 351 343 338
125 92 223 250 255 294 31 354 122 207 158 215 145 85 149 155 165 143 115 117 120 122 130 122 115 118 113 112 110 109 104 93 77 58 47 48 43 46 45 34 27 21 17 17 10 4 359 353 347
115 102 271 267 252 264 309 28 106 70 42 305 49 159 188 201 145 115 112 124 129 133 134 132 127 118 112 114 116 113 114 105 89 59 23 31 40 50 50 39 15 14 17 8 7 6 9 3 346
32 57 243 258 351 27 338 57 349 165 82 35 15 99 124 138 113 104 114 120 131 147 150 143 151 144 136 129 133 128 133 132 110 54 30 50 55 32 26 344 346 352 4 13 16 17 7 354 354
102 138 228 315 32 32 351 47 342 1 352 158 64 54 91 108 130 144 151 149 151 167 164 160 160 152 155 147 147 154 147 145 119 67 40 37 43 13 28 8 326 356 10 3 356 354 10 355 347
196 202 283 338 121 37 350 360 334 119 288 229 213 174 154 149 156 159 174 167 171 166 153 161 149 153 149 142 152 163 140 115 87 73 43 35 34 17 22 13 6 6 10 352 350 336 345 348 348
215 241 300 299 15 23 343 328 336 261 233 195 203 167 156 167 182 180 186 188 184 174 162 159 148 147 135 142 149 146 132 111 107 87 61 52 31 14 11 22 16 15 348 352 349 347 350 358 345
220 239 287 309 298 247 276 260 241 267 268 279 129 160 173 177 185 183 188 188 189 183 168 162 150 146 144 141 133 130 116 114 111 96 69 70 44 24 7 24 25 0 359 360 351 350 4 354 355
155 6 296 295 278 259 218 245 168 269 249 259 218 192 187 184 189 180 184 190 191 180 171 156 156 149 146 137 141 123 122 120 104 104 91 58 65 30 35 35 21 348 3 351 1 359 9 4 3
62 344 315 245 236 237 166 284 232 249 256 274 274 222 200 204 190 191 186 188 182 174 163 161 153 148 141 143 130 125 135 116 121 117 93 60 46 37 39 50 14 336 349 350 7 14 355 20 349
99 135 321 264 165 225 117 267 277 289 208 255 250 239 207 220 209 199 182 179 171 157 163 157 149 149 142 141 128 130 126 126 124 120 110 76 42 40 40 55 13 330 344 359 345 15 337 15 356
249 219 210 303 159 140 166 261 266 14 343 304 267 237 223 219 221 206 186 172 166 159 156 155 147 153 144 136 126 132 132 127 130 122 123 98 56 28 36 59 5 348 5 11 337 340 23 5 1
199 210 246 229 194 152 178 257 272 286 268 273 251 245 250 213 214 201 183 167 157 154 154 151 150 148 137 121 115 108 111 120 119 130 130 108 65 32 37 56 35 10 15 5 350 6 343 27 353
115 85 324 286 225 162 219 260 267 269 278 240 249 237 230 212 209 191 174 160 153 153 154 156 154 154 143 141 129 119 147 146 111 132 122 120 83 35 50 58 50 28 17 37 10 332 321 3 9
259 276 274 287 193 219 253 262 262 250 240 239 224 229 227 216 193 182 165 165 166 161 161 159 161 156 155 150 143 153 147 164 146 156 127 131 110 49 55 56 46 42 23 45 11 338 343 5 21
216 218 223 223 332 287 335 286 274 276 244 252 232 227 218 212 195 180 171 172 164 164 166 163 160 157 156 148 124 93 81 74 94 160 140 160 133 104 65 51 58 49 25 55 35 331 4 351 27
226 194 210 224 99 239 74 285 301 273 269 230 238 219 223 205 193 184 173 169 171 166 159 156 157 158 158 154 146 154 148 153 188 171 157 158 146 134 74 56 83 65 17 61 34 341 20 14 24
207 168 191 180 173 353 244 261 266 262 255 241 238 222 221 206 186 183 184 172 158 151 160 154 153 157 158 161 156 151 147 161 138 141 143 145 150 149 105 77 82 72 44 78 57 32 1 14 33
139 86 52 53 85 299 199 190 239 219 227 250 247 229 223 200 180 167 156 148 146 141 145 150 154 157 158 164 160 160 155 147 140 144 147 153 163 164 172 115 105 97 86 110 76 61 23 36 26
133 114 23 2 348 233 168 186 244 252 251 217 245 236 220 185 162 160 159 163 157 156 154 154 156 158 161 163 168 166 157 152 154 157 160 155 160 166 191 132 108 98 75 108 77 76 37 34 45
163 163 161 196 206 246 80 235 257 230 252 240 226 211 169 160 154 164 164 160 157 155 154 155 158 156 160 161 168 162 159 155 157 161 158 166 168 165 165 137 127 110 122 106 97 77 59 57 81
203 210 164 105 22 57 222 281 296 253 265 234 182 116 153 169 168 165 157 151 148 152 157 154 155 159 165 164 158 163 162 158 164 165 159 163 154 154 151 147 140 128 103 83 108 99 95 86 82
175 141 161 4 154 243 269 250 228 200 238 233 196 205 198 183 170 165 167 159 157 154 150 150 157 163 167 166 163 162 162 159 155 145 149 148 146 144 147 153 143 121 118 101 110 116 118 106 93
145 182 179 135 175 180 242 258 214 217 214 216 225 208 192 185 177 170 167 163 161 155 161 159 160 159 163 164 162 156 157 154 148 145 148 151 143 151 157 162 147 138 138 122 124 122 137 127 132
208 187 178 178 216 222 173 241 243 222 219 208 219 188 180 170 165 159 156 152 161 167 166 169 168 167 168 163 161 162 153 147 148 151 155 150 155 157 161 159 150 148 151 132 133 139 156 152 153